User: anonymous   Login
Location: Unspecified
(0.0000°N, 0.0000°E)
Time: 21:52:45
(UTC+00:00)
Language:

STARLINK-31484 - Orbit

View from above orbital plane
View from above orbital plane
View from above satellite
View from above satellite

Ground track
Ground track

The orbit is defined by the following mean orbital elements,

1 59005U          26145.54779647 +.00000000 +00000-0 +23027-4 0 00007
2 59005  53.1611  80.9109 0001343  91.1049 269.0106 15.30192610    02
Epoch (UTC): 25 May 2026 13:08:49
Eccentricity: 0.0001343
inclination: 53.1611°
perigee height: 474 km
apogee height: 476 km
right ascension of ascending node: 80.9109°
argument of perigee: 91.1049°
revolutions per day: 15.30192610
mean anomaly at epoch: 269.0106°

The dashed part of the orbit path shows where the satellite is in the earth's shadow,  

DLR